ASA3354 KSAN-KPHX

Flight info

Callsign ASA3354
Flight time 0h 50m
Altitude 35000
Route ZZOOO4 HOGGZ HYDRR1
Aircraft A320/M-SDE3FGHIRWY/LB1

Departure

Time 2026-04-24 02:03
Airport San Diego International Airport (KSAN)

Arrival

Time 2026-04-24 02:54
Airport Phoenix Sky Harbor International Airport (KPHX)
Time Latitude Longitude Altitude Speed Heading
2026-04-24 01:33 32.73334 -117.20346 25 ft 0 kts 264°
2026-04-24 01:50 32.73337 -117.20328 26 ft 4 kts 259°
2026-04-24 01:50 32.73342 -117.20297 24 ft 4 kts 259°
2026-04-24 01:50 32.73343 -117.20271 24 ft 4 kts 329°
2026-04-24 01:51 32.73335 -117.20267 24 ft 0 kts 343°
2026-04-24 01:53 32.73385 -117.20278 24 ft 14 kts
2026-04-24 01:54 32.73489 -117.20248 26 ft 17 kts 19°
2026-04-24 01:54 32.73539 -117.20148 27 ft 15 kts 103°
2026-04-24 01:54 32.73511 -117.20032 26 ft 15 kts 106°
2026-04-24 01:54 32.73484 -117.19921 27 ft 13 kts 106°
2026-04-24 01:55 32.73459 -117.19819 28 ft 13 kts 106°
2026-04-24 01:55 32.73431 -117.19703 27 ft 17 kts 105°
2026-04-24 01:55 32.73401 -117.19568 19 ft 16 kts 107°
2026-04-24 01:55 32.73368 -117.19441 27 ft 16 kts 107°
2026-04-24 01:56 32.73336 -117.19310 24 ft 17 kts 106°
2026-04-24 01:56 32.73303 -117.19176 27 ft 16 kts 106°
2026-04-24 01:56 32.73273 -117.19054 29 ft 15 kts 105°
2026-04-24 01:56 32.73246 -117.18940 28 ft 14 kts 106°
2026-04-24 01:57 32.73215 -117.18813 27 ft 16 kts 106°
2026-04-24 01:57 32.73186 -117.18692 28 ft 15 kts 106°
2026-04-24 01:57 32.73157 -117.18571 28 ft 16 kts 106°
2026-04-24 01:57 32.73125 -117.18441 25 ft 16 kts 106°
2026-04-24 01:58 32.73095 -117.18315 25 ft 16 kts 106°
2026-04-24 01:58 32.73064 -117.18189 23 ft 16 kts 105°
2026-04-24 01:58 32.73032 -117.18056 20 ft 17 kts 107°
2026-04-24 01:58 32.73001 -117.17930 20 ft 16 kts 105°
2026-04-24 01:59 32.72970 -117.17799 19 ft 17 kts 105°
2026-04-24 01:59 32.72950 -117.17682 20 ft 7 kts 84°
2026-04-24 01:59 32.72954 -117.17667 20 ft 0 kts 69°
2026-04-24 02:01 32.72956 -117.17661 21 ft 6 kts 69°
2026-04-24 02:02 32.72990 -117.17586 25 ft 9 kts 28°
2026-04-24 02:02 32.73031 -117.17633 24 ft 13 kts 287°
2026-04-24 02:02 32.73127 -117.18033 20 ft 94 kts 286°
2026-04-24 02:02 32.73375 -117.19046 51 ft 159 kts 286°
2026-04-24 02:03 32.74052 -117.21762 1666 ft 177 kts 286°
2026-04-24 02:03 32.74388 -117.23222 2467 ft 193 kts 285°
2026-04-24 02:03 32.74770 -117.24821 3015 ft 217 kts 286°
2026-04-24 02:04 32.75211 -117.26639 3767 ft 235 kts 285°
2026-04-24 02:04 32.75650 -117.28549 4826 ft 242 kts 285°
2026-04-24 02:04 32.76124 -117.30486 5916 ft 246 kts 286°
2026-04-24 02:04 32.76552 -117.32466 7022 ft 248 kts 276°
2026-04-24 02:05 32.76334 -117.34494 8127 ft 252 kts 248°
2026-04-24 02:05 32.75308 -117.36189 9231 ft 259 kts 223°
2026-04-24 02:05 32.73706 -117.37198 10303 ft 267 kts 197°
2026-04-24 02:05 32.71822 -117.37245 11292 ft 279 kts 170°
2026-04-24 02:06 32.70066 -117.36186 12247 ft 293 kts 140°
2026-04-24 02:06 32.68765 -117.34278 13218 ft 301 kts 128°
2026-04-24 02:06 32.67556 -117.32224 14141 ft 306 kts 127°
2026-04-24 02:06 32.66341 -117.30124 14964 ft 311 kts 127°
2026-04-24 02:07 32.65105 -117.27985 15801 ft 316 kts 127°
2026-04-24 02:07 32.63942 -117.25741 16626 ft 325 kts 116°
2026-04-24 02:07 32.63327 -117.23127 17338 ft 339 kts 97°
2026-04-24 02:07 32.63351 -117.20241 17635 ft 363 kts 85°
2026-04-24 02:08 32.63543 -117.17167 17887 ft 386 kts 85°
2026-04-24 02:08 32.63747 -117.13920 18397 ft 400 kts 85°
2026-04-24 02:08 32.63946 -117.10600 19009 ft 407 kts 85°
2026-04-24 02:08 32.64140 -117.07228 19644 ft 413 kts 85°
2026-04-24 02:09 32.64333 -117.03815 20227 ft 418 kts 86°
2026-04-24 02:09 32.64526 -117.00355 20905 ft 423 kts 86°
2026-04-24 02:09 32.64720 -116.96845 21576 ft 428 kts 86°
2026-04-24 02:09 32.64915 -116.93298 22237 ft 434 kts 86°
2026-04-24 02:10 32.65112 -116.89706 22889 ft 440 kts 86°
2026-04-24 02:10 32.65312 -116.86062 23526 ft 446 kts 86°
2026-04-24 02:10 32.65517 -116.82374 24103 ft 450 kts 86°
2026-04-24 02:10 32.65722 -116.78656 24669 ft 454 kts 86°
2026-04-24 02:11 32.65926 -116.74964 25221 ft 458 kts 86°
2026-04-24 02:11 32.66131 -116.71179 25768 ft 462 kts 86°
2026-04-24 02:11 32.66334 -116.67364 26277 ft 465 kts 86°
2026-04-24 02:11 32.66535 -116.63514 26788 ft 470 kts 86°
2026-04-24 02:12 32.66735 -116.59630 27290 ft 473 kts 86°
2026-04-24 02:12 32.66938 -116.55718 27777 ft 477 kts 87°
2026-04-24 02:12 32.67144 -116.51772 28266 ft 481 kts 87°
2026-04-24 02:12 32.67349 -116.47791 28732 ft 484 kts 87°
2026-04-24 02:13 32.67551 -116.43839 29192 ft 488 kts 87°
2026-04-24 02:13 32.67760 -116.39752 29648 ft 492 kts 87°
2026-04-24 02:13 32.67967 -116.35739 30080 ft 495 kts 87°
2026-04-24 02:13 32.68177 -116.31642 30443 ft 499 kts 87°
2026-04-24 02:14 32.68385 -116.27519 30781 ft 503 kts 87°
2026-04-24 02:14 32.68592 -116.23416 31113 ft 506 kts 87°
2026-04-24 02:14 32.68801 -116.19234 31436 ft 509 kts 87°
2026-04-24 02:14 32.69009 -116.15021 31763 ft 513 kts 87°
2026-04-24 02:15 32.69221 -116.10730 32158 ft 514 kts 87°
2026-04-24 02:15 32.69426 -116.06550 32620 ft 514 kts 87°
2026-04-24 02:15 32.69630 -116.02313 33055 ft 514 kts 87°
2026-04-24 02:15 32.69831 -115.98081 33509 ft 514 kts 87°
2026-04-24 02:16 32.70030 -115.93849 33966 ft 514 kts 87°
2026-04-24 02:16 32.70229 -115.89615 34347 ft 514 kts 87°
2026-04-24 02:16 32.70427 -115.85379 34702 ft 515 kts 87°
2026-04-24 02:16 32.70623 -115.81118 34874 ft 516 kts 87°
2026-04-24 02:17 32.70815 -115.76911 34900 ft 505 kts 87°
2026-04-24 02:17 32.71004 -115.72774 34893 ft 499 kts 87°
2026-04-24 02:17 32.71377 -115.64566 34890 ft 497 kts 88°
2026-04-24 02:18 32.71746 -115.56388 34863 ft 496 kts 88°
2026-04-24 02:18 32.72109 -115.48209 34866 ft 496 kts 88°
2026-04-24 02:19 32.72462 -115.40034 34884 ft 495 kts 88°
2026-04-24 02:19 32.72813 -115.31868 34888 ft 495 kts 88°
2026-04-24 02:20 32.73153 -115.23764 34885 ft 495 kts 88°
2026-04-24 02:20 32.73488 -115.15594 34884 ft 495 kts 88°
2026-04-24 02:21 32.73820 -115.07432 34882 ft 495 kts 88°
2026-04-24 02:21 32.74146 -114.99268 34877 ft 495 kts 88°
2026-04-24 02:22 32.74473 -114.91114 34752 ft 492 kts 88°
2026-04-24 02:22 32.74633 -114.87073 34323 ft 487 kts 88°
2026-04-24 02:22 32.74788 -114.83074 33910 ft 483 kts 88°
2026-04-24 02:23 32.74939 -114.79112 33434 ft 478 kts 88°
2026-04-24 02:23 32.75090 -114.75173 32958 ft 474 kts 88°
2026-04-24 02:23 32.75236 -114.71281 32489 ft 470 kts 88°
2026-04-24 02:23 32.75379 -114.67415 32040 ft 467 kts 88°
2026-04-24 02:24 32.75519 -114.63579 31581 ft 463 kts 88°
2026-04-24 02:24 32.75662 -114.59766 31140 ft 460 kts 88°
2026-04-24 02:24 32.75803 -114.55985 30703 ft 457 kts 88°
2026-04-24 02:24 32.75941 -114.52227 30274 ft 454 kts 88°
2026-04-24 02:25 32.76074 -114.48493 29839 ft 451 kts 88°
2026-04-24 02:25 32.76205 -114.44784 29339 ft 449 kts 88°
2026-04-24 02:25 32.76333 -114.41092 28848 ft 446 kts 88°
2026-04-24 02:25 32.76459 -114.37423 28369 ft 443 kts 88°
2026-04-24 02:26 32.76585 -114.33781 27892 ft 440 kts 88°
2026-04-24 02:26 32.76724 -114.30163 27434 ft 439 kts 87°
2026-04-24 02:26 32.76872 -114.26550 26976 ft 436 kts 88°
2026-04-24 02:26 32.76995 -114.22958 26526 ft 434 kts 88°
2026-04-24 02:27 32.77104 -114.19385 26082 ft 431 kts 88°
2026-04-24 02:27 32.77208 -114.15848 25651 ft 427 kts 88°
2026-04-24 02:27 32.77312 -114.12338 25219 ft 423 kts 88°
2026-04-24 02:27 32.77418 -114.08871 24921 ft 415 kts 88°
2026-04-24 02:28 32.77638 -114.05514 24858 ft 399 kts 81°
2026-04-24 02:28 32.78003 -114.02317 24875 ft 383 kts 81°
2026-04-24 02:28 32.78346 -113.99244 24878 ft 367 kts 82°
2026-04-24 02:28 32.78670 -113.96300 24877 ft 352 kts 82°
2026-04-24 02:29 32.78978 -113.93469 24872 ft 342 kts 82°
2026-04-24 02:29 32.79281 -113.90675 24873 ft 345 kts 82°
2026-04-24 02:29 32.79603 -113.87740 24829 ft 368 kts 82°
2026-04-24 02:29 32.79941 -113.84652 24087 ft 387 kts 82°
2026-04-24 02:30 32.80297 -113.81371 23671 ft 417 kts 82°
2026-04-24 02:30 32.80679 -113.77820 23433 ft 445 kts 82°
2026-04-24 02:30 32.81078 -113.74125 23170 ft 455 kts 82°
2026-04-24 02:30 32.81773 -113.70454 22886 ft 456 kts 68°
2026-04-24 02:31 32.83158 -113.67093 22630 ft 451 kts 53°
2026-04-24 02:31 32.85102 -113.64199 22366 ft 447 kts 44°
2026-04-24 02:31 32.87138 -113.61473 22172 ft 447 kts 44°
2026-04-24 02:31 32.89206 -113.58704 21988 ft 447 kts 44°
2026-04-24 02:32 32.91268 -113.55935 21782 ft 447 kts 44°
2026-04-24 02:32 32.93339 -113.53147 21580 ft 458 kts 44°
2026-04-24 02:32 32.95505 -113.50235 21374 ft 481 kts 45°
2026-04-24 02:32 32.97759 -113.47200 21113 ft 496 kts 45°
2026-04-24 02:33 33.00036 -113.44120 20862 ft 487 kts 45°
2026-04-24 02:33 33.01520 -113.42102 20668 ft 473 kts 45°
2026-04-24 02:33 33.04317 -113.38292 20280 ft 451 kts 45°
2026-04-24 02:33 33.06349 -113.35525 19986 ft 437 kts 45°
2026-04-24 02:34 33.08327 -113.32844 19699 ft 424 kts 44°
2026-04-24 02:34 33.09632 -113.31079 19511 ft 416 kts 44°
2026-04-24 02:34 33.11526 -113.28521 19219 ft 408 kts 44°
2026-04-24 02:34 33.13390 -113.26008 18943 ft 404 kts 44°
2026-04-24 02:35 33.15228 -113.23532 18703 ft 402 kts 44°
2026-04-24 02:35 33.17076 -113.21037 18497 ft 400 kts 44°
2026-04-24 02:35 33.18915 -113.18548 18271 ft 399 kts 44°
2026-04-24 02:35 33.20770 -113.16034 18023 ft 398 kts 44°
2026-04-24 02:36 33.22569 -113.13591 17758 ft 396 kts 44°
2026-04-24 02:36 33.24383 -113.11122 17499 ft 395 kts 45°
2026-04-24 02:36 33.25951 -113.08411 17236 ft 399 kts 59°
2026-04-24 02:36 33.27020 -113.05352 16980 ft 400 kts 72°
2026-04-24 02:37 33.27538 -113.02092 16731 ft 400 kts 85°
2026-04-24 02:37 33.27636 -112.98774 16483 ft 399 kts 88°
2026-04-24 02:37 33.27716 -112.95460 16235 ft 398 kts 88°
2026-04-24 02:37 33.27799 -112.92165 15991 ft 396 kts 88°
2026-04-24 02:38 33.27881 -112.88883 15792 ft 394 kts 88°
2026-04-24 02:38 33.27962 -112.85612 15549 ft 393 kts 88°
2026-04-24 02:38 33.28043 -112.82354 15305 ft 391 kts 88°
2026-04-24 02:38 33.28215 -112.79123 15070 ft 389 kts 84°
2026-04-24 02:39 33.28491 -112.75912 14831 ft 388 kts 83°
2026-04-24 02:39 33.28732 -112.73569 14661 ft 387 kts 82°
2026-04-24 02:39 33.29082 -112.70379 14421 ft 384 kts 82°
2026-04-24 02:39 33.29426 -112.67218 14190 ft 383 kts 82°
2026-04-24 02:40 33.29752 -112.64068 13955 ft 382 kts 83°
2026-04-24 02:40 33.30061 -112.60920 13724 ft 380 kts 83°
2026-04-24 02:40 33.30356 -112.57787 13471 ft 379 kts 83°
2026-04-24 02:40 33.30642 -112.54664 13211 ft 377 kts 83°
2026-04-24 02:41 33.30925 -112.51553 12936 ft 376 kts 83°
2026-04-24 02:41 33.31206 -112.48458 12687 ft 374 kts 83°
2026-04-24 02:41 33.31485 -112.45382 12436 ft 372 kts 83°
2026-04-24 02:41 33.31764 -112.42317 12185 ft 369 kts 83°
2026-04-24 02:42 33.32040 -112.39275 11938 ft 367 kts 83°
2026-04-24 02:42 33.32314 -112.36262 11691 ft 366 kts 83°
2026-04-24 02:42 33.32584 -112.33293 11449 ft 363 kts 83°
2026-04-24 02:42 33.32862 -112.30255 11201 ft 362 kts 83°
2026-04-24 02:43 33.33133 -112.27315 10898 ft 358 kts 83°
2026-04-24 02:43 33.33404 -112.24363 10653 ft 357 kts 83°
2026-04-24 02:43 33.33671 -112.21410 10469 ft 357 kts 83°
2026-04-24 02:43 33.33937 -112.18471 10227 ft 354 kts 83°
2026-04-24 02:44 33.34200 -112.15553 9993 ft 349 kts 83°
2026-04-24 02:44 33.34455 -112.12705 9594 ft 342 kts 83°
2026-04-24 02:44 33.34705 -112.09886 9086 ft 339 kts 84°
2026-04-24 02:44 33.34763 -112.07081 8697 ft 333 kts 89°
2026-04-24 02:45 33.34741 -112.04356 8459 ft 322 kts 90°
2026-04-24 02:45 33.34701 -112.01698 8023 ft 317 kts 91°
2026-04-24 02:45 33.34656 -111.99116 7707 ft 310 kts 91°
2026-04-24 02:45 33.34608 -111.96550 7379 ft 302 kts 91°
2026-04-24 02:46 33.34567 -111.94067 7063 ft 295 kts 91°
2026-04-24 02:46 33.34555 -111.91655 6898 ft 282 kts 89°
2026-04-24 02:46 33.34597 -111.89345 6677 ft 274 kts 88°
2026-04-24 02:46 33.34660 -111.87093 6419 ft 267 kts 88°
2026-04-24 02:47 33.34724 -111.84903 6066 ft 264 kts 88°
2026-04-24 02:47 33.34785 -111.82641 5384 ft 275 kts 88°
2026-04-24 02:47 33.34913 -111.80426 5238 ft 261 kts 77°
2026-04-24 02:47 33.35673 -111.78500 4745 ft 261 kts 48°
2026-04-24 02:48 33.37135 -111.77242 4177 ft 260 kts 16°
2026-04-24 02:48 33.38815 -111.76944 4037 ft 231 kts 352°
2026-04-24 02:48 33.40273 -111.77360 4027 ft 204 kts 332°
2026-04-24 02:48 33.41479 -111.78166 4023 ft 196 kts 330°
2026-04-24 02:49 33.42746 -111.78742 4025 ft 195 kts 338°
2026-04-24 02:49 33.44034 -111.79229 4023 ft 192 kts 335°
2026-04-24 02:49 33.45116 -111.80086 4024 ft 186 kts 308°
2026-04-24 02:49 33.45609 -111.81457 4032 ft 182 kts 271°
2026-04-24 02:50 33.45514 -111.82960 4029 ft 181 kts 262°
2026-04-24 02:50 33.45265 -111.84439 4025 ft 182 kts 251°
2026-04-24 02:50 33.44787 -111.85827 3823 ft 179 kts 248°
2026-04-24 02:50 33.44296 -111.87217 3332 ft 182 kts 248°
2026-04-24 02:51 33.44058 -111.88678 2900 ft 177 kts 269°
2026-04-24 02:51 33.44061 -111.90093 2461 ft 163 kts 269°
2026-04-24 02:51 33.44063 -111.91396 2148 ft 147 kts 268°
2026-04-24 02:51 33.44059 -111.92537 2169 ft 130 kts 269°
2026-04-24 02:52 33.44067 -111.93585 2000 ft 123 kts 269°
2026-04-24 02:52 33.44068 -111.94585 1842 ft 120 kts 272°
2026-04-24 02:52 33.44078 -111.95580 1686 ft 117 kts 269°
2026-04-24 02:52 33.44074 -111.96545 1517 ft 115 kts 269°
2026-04-24 02:53 33.44080 -111.97515 1431 ft 119 kts 269°
2026-04-24 02:53 33.44074 -111.98506 1305 ft 118 kts 269°
2026-04-24 02:53 33.44081 -111.99467 1152 ft 114 kts 269°
2026-04-24 02:53 33.44075 -112.00292 1133 ft 79 kts 272°
2026-04-24 02:54 33.44074 -112.00814 1132 ft 47 kts 270°
2026-04-24 02:54 33.44058 -112.01055 1135 ft 17 kts 236°
2026-04-24 02:54 33.43987 -112.01070 1133 ft 0 kts 140°
2026-04-24 02:56 33.43987 -112.01068 1133 ft 0 kts 129°
2026-04-24 02:56 33.43976 -112.00991 1131 ft 16 kts 91°
2026-04-24 02:56 33.43976 -112.00858 1133 ft 16 kts 92°
2026-04-24 02:57 33.43955 -112.00758 1132 ft 0 kts 121°
2026-04-24 02:57 33.43952 -112.00752 1133 ft 4 kts 127°
2026-04-24 02:57 33.43931 -112.00729 1131 ft 5 kts 137°
2026-04-24 02:57 33.43909 -112.00699 1135 ft 5 kts 121°
2026-04-24 02:58 33.43902 -112.00568 1131 ft 24 kts 91°
2026-04-24 02:58 33.43897 -112.00412 1131 ft 12 kts 110°
2026-04-24 02:58 33.43812 -112.00382 1132 ft 15 kts 182°
2026-04-24 02:58 33.43693 -112.00383 1133 ft 19 kts 180°
2026-04-24 02:59 33.43550 -112.00385 1133 ft 23 kts 180°
2026-04-24 02:59 33.43411 -112.00382 1133 ft 0 kts 179°
2026-04-24 02:59 33.43410 -112.00382 1133 ft 1 kts 179°
2026-04-24 02:59 33.43383 -112.00382 1133 ft 4 kts 179°
2026-04-24 03:00 33.43372 -112.00381 1133 ft 0 kts 179°
2026-04-24 03:00 33.43365 -112.00381 1134 ft 4 kts 179°
2026-04-24 03:00 33.43337 -112.00380 1135 ft 4 kts 179°
2026-04-24 03:00 33.43294 -112.00403 1132 ft 12 kts 234°
2026-04-24 03:01 33.43287 -112.00513 1134 ft 15 kts 272°
2026-04-24 03:01 33.43288 -112.00656 1132 ft 19 kts 269°
2026-04-24 03:01 33.43289 -112.00740 1136 ft 0 kts 274°
2026-04-24 03:01 33.43296 -112.00822 1131 ft 19 kts 265°
2026-04-24 03:02 33.43288 -112.00958 1135 ft 11 kts 273°
2026-04-24 03:02 33.43305 -112.01004 1133 ft 3 kts 318°
2026-04-24 03:02 33.43324 -112.01022 1132 ft 4 kts 324°
2026-04-24 03:02 33.43347 -112.01030 1132 ft 3 kts 352°
2026-04-24 03:03 33.43371 -112.01031 1133 ft 3 kts
2026-04-24 03:03 33.43387 -112.01031 1132 ft 1 kts 352°
2026-04-24 03:03 33.43389 -112.01032 1132 ft 0 kts 351°